Location: Iesi
(43.5167°N, 13.2333°E)
Time: 01:22:01
(UTC+00:00)

MOS 1 - Pass Details

Date: 08 August 2020
Orbit: 879 x 890 km, 99.1° (Epoch: 19 September)

Event Time Altitude Azimuth Distance (km) Brightness Sun altitude
Rises 18:52:41 0° 164° (SSE) 3,463 7.0 -6.1°
Reaches altitude 10° 18:55:03 10° 164° (SSE) 2,529 6.3 -6.5°
Maximum altitude 19:00:41 89° 250° (WSW) 887 4.4 -7.4°
Drops below altitude 10° 19:06:23 10° 345° (NNW) 2,551 7.4 -8.3°
Sets 19:08:47 0° 346° (NNW) 3,495 8.2 -8.7°
